QPF
0.12 0.14 0.14 0.15 0.20 0.24 0.21 0.23 0.25 0.23 0.22 0.22 0.19 0.20 0.17 0.17 0.24 0.29 0.22 0.16 0.18 0.23 0.25 0.18 0.14 0.12 0.12 0.11 0.11 0.10 0.10 0.09 0.06 0.06 0.07 0.08 0.09 0.09 0.05 0.04 0.05 0.04 0.04
0.09 0.11 0.12 0.16 0.21 0.20 0.20 0.23 0.21 0.19 0.19 0.20 0.19 0.20 0.18 0.16 0.16 0.17 0.18 0.18 0.20 0.23 0.20 0.15 0.11 0.10 0.09 0.08 0.10 0.11 0.10 0.11 0.10 0.08 0.07 0.06 0.06 0.07 0.07 0.07 0.09 0.09 0.06
0.05 0.07 0.13 0.20 0.22 0.19 0.17 0.16 0.14 0.15 0.15 0.17 0.18 0.21 0.18 0.17 0.19 0.18 0.21 0.23 0.24 0.22 0.18 0.15 0.10 0.08 0.07 0.05 0.05 0.07 0.08 0.08 0.11 0.10 0.08 0.06 0.05 0.04 0.04 0.07 0.07 0.07 0.06
0.03 0.05 0.07 0.12 0.13 0.11 0.11 0.12 0.12 0.10 0.10 0.13 0.16 0.16 0.19 0.21 0.23 0.22 0.24 0.23 0.24 0.22 0.19 0.16 0.12 0.09 0.07 0.05 0.04 0.05 0.06 0.04 0.06 0.09 0.11 0.10 0.07 0.04 0.04 0.04 0.04 0.06 0.05
0.03 0.03 0.04 0.06 0.07 0.08 0.09 0.11 0.11 0.09 0.09 0.11 0.11 0.12 0.16 0.18 0.18 0.21 0.20 0.17 0.19 0.20 0.19 0.17 0.12 0.08 0.06 0.05 0.04 0.04 0.03 0.03 0.07 0.11 0.10 0.10 0.09 0.05 0.03 0.04 0.04 0.06 0.04
0.04 0.03 0.03 0.05 0.05 0.06 0.08 0.17 0.14 0.10 0.09 0.10 0.08 0.07 0.09 0.11 0.12 0.15 0.15 0.15 0.16 0.15 0.14 0.14 0.11 0.07 0.05 0.05 0.04 0.03 0.02 0.03 0.07 0.08 0.06 0.06 0.05 0.05 0.03 0.03 0.04 0.05 0.03
0.02 0.02 0.03 0.04 0.03 0.04 0.07 0.16 0.14 0.10 0.10 0.09 0.07 0.07 0.09 0.10 0.12 0.12 0.13 0.16 0.16 0.15 0.12 0.10 0.09 0.06 0.03 0.04 0.03 0.03 0.03 0.04 0.08 0.06 0.06 0.07 0.04 0.03 0.03 0.03 0.04 0.05 0.03
0.01 0.03 0.04 0.05 0.05 0.05 0.07 0.12 0.12 0.11 0.10 0.07 0.06 0.07 0.09 0.08 0.11 0.13 0.14 0.16 0.16 0.17 0.14 0.11 0.09 0.06 0.04 0.04 0.04 0.03 0.03 0.04 0.05 0.05 0.05 0.05 0.03 0.01 0.02 0.03 0.03 0.03 0.02
0.01 0.03 0.04 0.05 0.06 0.07 0.08 0.12 0.10 0.09 0.09 0.07 0.08 0.08 0.08 0.08 0.10 0.11 0.15 0.17 0.17 0.17 0.15 0.11 0.09 0.07 0.04 0.03 0.03 0.03 0.04 0.05 0.06 0.05 0.06 0.05 0.01 0.01 0.01 0.01 0.01 0.02 0.01
0.02 0.03 0.03 0.04 0.05 0.09 0.09 0.09 0.10 0.10 0.09 0.09 0.11 0.12 0.13 0.12 0.13 0.12 0.14 0.16 0.17 0.15 0.14 0.11 0.07 0.07 0.04 0.02 0.03 0.03 0.03 0.03 0.05 0.06 0.06 0.04 0.01 0.01 0.01 0.01 0.01 0.02 0.01
0.03 0.04 0.04 0.04 0.04 0.05 0.05 0.08 0.09 0.09 0.09 0.09 0.09 0.12 0.16 0.22 0.23 0.20 0.21 0.20 0.18 0.16 0.13 0.10 0.08 0.06 0.04 0.03 0.03 0.02 0.02 0.03 0.06 0.05 0.04 0.03 0.02 0.01 0.01 0.01 0.02 0.02 0.02
0.03 0.03 0.05 0.03 0.03 0.03 0.05 0.12 0.17 0.13 0.10 0.11 0.09 0.10 0.14 0.22 0.35 0.34 0.34 0.28 0.25 0.19 0.13 0.09 0.07 0.04 0.04 0.04 0.03 0.02 0.02 0.03 0.04 0.04 0.05 0.03 0.02 0.02 0.02 0.02 0.03 0.03 0.02
0.01 0.03 0.04 0.04 0.04 0.05 0.08 0.09 0.11 0.10 0.09 0.10 0.09 0.09 0.12 0.15 0.27 0.39 0.37 0.35 0.32 0.21 0.16 0.11 0.08 0.05 0.04 0.07 0.05 0.02 0.02 0.02 0.02 0.03 0.04 0.02 0.02 0.02 0.03 0.02 0.03 0.03 0.03
0.01 0.02 0.07 0.07 0.06 0.05 0.06 0.06 0.04 0.06 0.06 0.08 0.08 0.08 0.09 0.12 0.17 0.24 0.24 0.24 0.22 0.17 0.16 0.11 0.08 0.06 0.05 0.06 0.03 0.02 0.02 0.02 0.03 0.04 0.04 0.01 0.01 0.01 0.02 0.03 0.02 0.02 0.03
0.01 0.01 0.07 0.11 0.08 0.06 0.07 0.08 0.04 0.04 0.05 0.05 0.07 0.09 0.09 0.08 0.10 0.12 0.14 0.14 0.12 0.10 0.09 0.09 0.07 0.07 0.06 0.06 0.03 0.01 0.01 0.02 0.03 0.03 0.03 0.02 0.01 0.01 0.01 0.01 0.02 0.02 0.03
0.01 0.02 0.05 0.13 0.10 0.07 0.06 0.07 0.05 0.03 0.03 0.02 0.04 0.07 0.09 0.08 0.08 0.08 0.07 0.09 0.08 0.05 0.05 0.05 0.05 0.05 0.07 0.06 0.04 0.02 0.02 0.02 0.02 0.03 0.04 0.04 0.02 0.01 0.02 0.02 0.02 0.01 0.03
0.01 0.01 0.02 0.07 0.11 0.09 0.08 0.08 0.06 0.03 0.03 0.03 0.04 0.05 0.06 0.08 0.10 0.09 0.10 0.10 0.08 0.05 0.05 0.05 0.05 0.04 0.05 0.05 0.05 0.03 0.01 0.01 0.02 0.04 0.06 0.07 0.05 0.03 0.03 0.04 0.03 0.02 0.02
0.00 0.01 0.01 0.01 0.06 0.11 0.10 0.08 0.06 0.05 0.04 0.04 0.04 0.04 0.05 0.07 0.09 0.10 0.10 0.10 0.09 0.08 0.07 0.07 0.06 0.05 0.07 0.07 0.07 0.05 0.03 0.03 0.02 0.03 0.05 0.05 0.05 0.04 0.03 0.04 0.04 0.04 0.03
0.00 0.01 0.02 0.02 0.04 0.10 0.11 0.09 0.08 0.07 0.05 0.04 0.04 0.04 0.05 0.07 0.07 0.07 0.09 0.11 0.10 0.09 0.09 0.06 0.07 0.08 0.10 0.11 0.07 0.04 0.04 0.03 0.02 0.02 0.02 0.03 0.04 0.05 0.05 0.04 0.03 0.04 0.03
0.00 0.01 0.01 0.02 0.03 0.05 0.10 0.10 0.11 0.08 0.06 0.05 0.04 0.05 0.07 0.06 0.06 0.10 0.09 0.10 0.10 0.11 0.11 0.09 0.12 0.12 0.13 0.12 0.06 0.05 0.04 0.04 0.03 0.03 0.02 0.04 0.04 0.03 0.05 0.08 0.06 0.05 0.04
0.00 0.01 0.01 0.02 0.03 0.04 0.07 0.10 0.11 0.10 0.08 0.07 0.04 0.04 0.04 0.04 0.05 0.11 0.13 0.12 0.10 0.13 0.13 0.10 0.11 0.13 0.12 0.10 0.10 0.09 0.07 0.04 0.05 0.04 0.03 0.04 0.04 0.05 0.07 0.09 0.09 0.08 0.06
0.00 0.01 0.01 0.01 0.02 0.03 0.04 0.04 0.08 0.10 0.08 0.08 0.07 0.08 0.04 0.04 0.06 0.08 0.11 0.10 0.10 0.14 0.14 0.11 0.11 0.12 0.11 0.11 0.11 0.14 0.15 0.13 0.09 0.04 0.04 0.06 0.06 0.08 0.07 0.07 0.07 0.09 0.08
0.00 0.01 0.01 0.01 0.03 0.03 0.03 0.03 0.04 0.07 0.08 0.09 0.10 0.10 0.06 0.04 0.03 0.05 0.09 0.09 0.10 0.07 0.11 0.11 0.09 0.10 0.11 0.11 0.12 0.12 0.15 0.16 0.14 0.09 0.07 0.06 0.07 0.07 0.05 0.04 0.05 0.07 0.09
0.00 0.00 0.01 0.01 0.03 0.03 0.04 0.04 0.04 0.04 0.05 0.07 0.07 0.07 0.06 0.03 0.02 0.02 0.05 0.08 0.10 0.09 0.12 0.08 0.09 0.10 0.12 0.14 0.13 0.10 0.10 0.11 0.13 0.13 0.08 0.06 0.08 0.08 0.06 0.04 0.06 0.09 0.13
0.00 0.00 0.01 0.02 0.03 0.07 0.07 0.04 0.02 0.03 0.05 0.05 0.06 0.08 0.07 0.05 0.03 0.03 0.05 0.06 0.07 0.10 0.11 0.10 0.12 0.08 0.08 0.10 0.11 0.10 0.10 0.10 0.09 0.11 0.12 0.10 0.08 0.08 0.08 0.08 0.09 0.09 0.12
0.00 0.01 0.01 0.02 0.02 0.02 0.03 0.03 0.02 0.03 0.05 0.06 0.08 0.09 0.07 0.07 0.06 0.05 0.06 0.06 0.06 0.09 0.10 0.11 0.10 0.09 0.09 0.09 0.09 0.09 0.10 0.11 0.10 0.10 0.11 0.11 0.12 0.10 0.06 0.07 0.08 0.07 0.08
MSLP
1006.17 1006.20 1006.29 1006.41 1006.52 1006.58 1006.59 1006.56 1006.52 1006.55 1006.70 1007.01 1007.48 1008.09 1008.78 1009.48 1010.13 1010.69 1011.13 1011.48 1011.77 1012.03 1012.30 1012.58 1012.86 1013.14 1013.39 1013.59 1013.74 1013.87 1014.00 1014.15 1014.34 1014.58 1014.85 1015.13 1015.39 1015.61 1015.79 1015.92 1016.04 1016.15 1016.30
1006.14 1006.33 1006.61 1006.93 1007.23 1007.46 1007.59 1007.63 1007.63 1007.64 1007.74 1007.97 1008.34 1008.83 1009.40 1010.00 1010.56 1011.05 1011.45 1011.78 1012.07 1012.34 1012.62 1012.91 1013.20 1013.47 1013.69 1013.86 1013.99 1014.09 1014.20 1014.34 1014.53 1014.78 1015.07 1015.38 1015.66 1015.91 1016.11 1016.26 1016.38 1016.50 1016.64
1006.02 1006.37 1006.82 1007.32 1007.78 1008.16 1008.41 1008.54 1008.58 1008.60 1008.67 1008.84 1009.14 1009.54 1010.02 1010.51 1010.99 1011.41 1011.75 1012.05 1012.32 1012.60 1012.88 1013.19 1013.49 1013.76 1013.97 1014.13 1014.23 1014.31 1014.39 1014.52 1014.70 1014.96 1015.26 1015.58 1015.89 1016.16 1016.37 1016.54 1016.68 1016.81 1016.97
1005.86 1006.34 1006.93 1007.57 1008.18 1008.68 1009.03 1009.24 1009.34 1009.39 1009.47 1009.62 1009.87 1010.22 1010.63 1011.05 1011.44 1011.78 1012.07 1012.32 1012.57 1012.83 1013.13 1013.44 1013.75 1014.03 1014.25 1014.39 1014.48 1014.54 1014.60 1014.71 1014.88 1015.13 1015.44 1015.77 1016.09 1016.37 1016.60 1016.78 1016.95 1017.10 1017.27
1005.75 1006.31 1007.00 1007.74 1008.44 1009.03 1009.46 1009.74 1009.90 1010.01 1010.13 1010.30 1010.56 1010.89 1011.26 1011.62 1011.94 1012.21 1012.43 1012.63 1012.84 1013.09 1013.37 1013.69 1014.01 1014.30 1014.52 1014.66 1014.74 1014.78 1014.82 1014.91 1015.07 1015.31 1015.61 1015.94 1016.27 1016.56 1016.80 1017.01 1017.18 1017.36 1017.56
1005.75 1006.36 1007.09 1007.87 1008.62 1009.25 1009.74 1010.08 1010.31 1010.49 1010.68 1010.91 1011.21 1011.55 1011.91 1012.24 1012.51 1012.71 1012.86 1013.00 1013.16 1013.37 1013.64 1013.95 1014.28 1014.57 1014.79 1014.93 1015.00 1015.02 1015.04 1015.11 1015.26 1015.49 1015.78 1016.12 1016.45 1016.75 1017.00 1017.22 1017.40 1017.59 1017.80
1005.91 1006.51 1007.24 1008.01 1008.75 1009.39 1009.91 1010.30 1010.61 1010.87 1011.14 1011.46 1011.83 1012.21 1012.58 1012.89 1013.12 1013.26 1013.34 1013.41 1013.51 1013.68 1013.92 1014.21 1014.53 1014.82 1015.04 1015.18 1015.23 1015.24 1015.24 1015.30 1015.43 1015.65 1015.95 1016.29 1016.64 1016.95 1017.21 1017.42 1017.61 1017.80 1018.00
1006.19 1006.75 1007.43 1008.16 1008.87 1009.50 1010.02 1010.45 1010.82 1011.17 1011.54 1011.95 1012.39 1012.83 1013.22 1013.53 1013.72 1013.80 1013.82 1013.82 1013.85 1013.97 1014.17 1014.45 1014.75 1015.03 1015.24 1015.37 1015.41 1015.39 1015.39 1015.43 1015.55 1015.78 1016.10 1016.46 1016.82 1017.14 1017.41 1017.63 1017.80 1017.97 1018.16
1006.53 1007.04 1007.65 1008.31 1008.97 1009.56 1010.09 1010.54 1010.96 1011.39 1011.85 1012.35 1012.86 1013.36 1013.77 1014.07 1014.23 1014.26 1014.22 1014.15 1014.13 1014.20 1014.37 1014.62 1014.90 1015.17 1015.37 1015.47 1015.49 1015.47 1015.44 1015.48 1015.61 1015.86 1016.19 1016.58 1016.98 1017.33 1017.62 1017.83 1017.99 1018.13 1018.29
1006.85 1007.29 1007.83 1008.43 1009.03 1009.59 1010.10 1010.57 1011.04 1011.52 1012.05 1012.62 1013.19 1013.72 1014.15 1014.44 1014.57 1014.57 1014.47 1014.36 1014.30 1014.33 1014.46 1014.69 1014.96 1015.21 1015.39 1015.48 1015.49 1015.44 1015.41 1015.44 1015.58 1015.85 1016.22 1016.66 1017.10 1017.49 1017.81 1018.03 1018.18 1018.29 1018.40
1007.05 1007.44 1007.93 1008.47 1009.02 1009.55 1010.05 1010.53 1011.03 1011.55 1012.13 1012.74 1013.34 1013.89 1014.32 1014.60 1014.71 1014.67 1014.54 1014.40 1014.31 1014.32 1014.44 1014.65 1014.91 1015.15 1015.32 1015.40 1015.39 1015.34 1015.29 1015.33 1015.48 1015.77 1016.18 1016.67 1017.16 1017.61 1017.96 1018.21 1018.36 1018.45 1018.52
1007.12 1007.48 1007.92 1008.42 1008.94 1009.45 1009.94 1010.42 1010.92 1011.47 1012.06 1012.68 1013.29 1013.83 1014.25 1014.51 1014.61 1014.56 1014.43 1014.28 1014.18 1014.19 1014.31 1014.52 1014.77 1015.01 1015.17 1015.25 1015.23 1015.17 1015.13 1015.16 1015.32 1015.63 1016.08 1016.61 1017.16 1017.66 1018.07 1018.35 1018.52 1018.60 1018.64
1007.06 1007.40 1007.83 1008.30 1008.79 1009.28 1009.75 1010.23 1010.72 1011.26 1011.84 1012.44 1013.03 1013.56 1013.96 1014.22 1014.31 1014.27 1014.15 1014.02 1013.94 1013.96 1014.09 1014.31 1014.58 1014.82 1014.99 1015.06 1015.05 1014.99 1014.95 1014.98 1015.14 1015.46 1015.93 1016.49 1017.08 1017.64 1018.10 1018.43 1018.63 1018.73 1018.77
1006.91 1007.25 1007.67 1008.13 1008.60 1009.07 1009.53 1009.98 1010.45 1010.95 1011.50 1012.07 1012.62 1013.11 1013.50 1013.75 1013.86 1013.84 1013.76 1013.67 1013.63 1013.69 1013.84 1014.08 1014.36 1014.61 1014.80 1014.88 1014.88 1014.83 1014.79 1014.82 1014.97 1015.29 1015.74 1016.31 1016.93 1017.52 1018.03 1018.42 1018.67 1018.81 1018.88
1006.74 1007.10 1007.51 1007.96 1008.42 1008.86 1009.29 1009.71 1010.14 1010.60 1011.09 1011.60 1012.10 1012.56 1012.93 1013.19 1013.32 1013.36 1013.33 1013.30 1013.31 1013.41 1013.60 1013.86 1014.15 1014.42 1014.62 1014.73 1014.75 1014.72 1014.69 1014.71 1014.84 1015.13 1015.55 1016.10 1016.70 1017.30 1017.85 1018.28 1018.60 1018.80 1018.91
1006.63 1006.99 1007.40 1007.83 1008.27 1008.68 1009.07 1009.45 1009.83 1010.23 1010.65 1011.10 1011.55 1011.96 1012.32 1012.60 1012.78 1012.87 1012.91 1012.95 1013.02 1013.16 1013.38 1013.65 1013.96 1014.25 1014.47 1014.62 1014.68 1014.67 1014.65 1014.67 1014.78 1015.01 1015.38 1015.86 1016.41 1016.98 1017.53 1018.00 1018.37 1018.64 1018.83
1006.58 1006.95 1007.35 1007.76 1008.17 1008.55 1008.91 1009.24 1009.57 1009.90 1010.25 1010.63 1011.02 1011.39 1011.74 1012.03 1012.26 1012.42 1012.53 1012.64 1012.77 1012.95 1013.19 1013.48 1013.79 1014.10 1014.35 1014.54 1014.64 1014.68 1014.68 1014.70 1014.77 1014.94 1015.22 1015.60 1016.07 1016.58 1017.08 1017.56 1017.97 1018.31 1018.57
1006.59 1006.96 1007.35 1007.74 1008.12 1008.48 1008.80 1009.10 1009.37 1009.64 1009.92 1010.22 1010.55 1010.89 1011.22 1011.52 1011.79 1012.01 1012.20 1012.38 1012.56 1012.77 1013.03 1013.33 1013.65 1013.97 1014.25 1014.48 1014.63 1014.72 1014.75 1014.78 1014.82 1014.92 1015.09 1015.36 1015.70 1016.10 1016.54 1016.98 1017.41 1017.79 1018.13
1006.58 1006.95 1007.34 1007.72 1008.09 1008.43 1008.74 1009.01 1009.25 1009.47 1009.68 1009.92 1010.18 1010.47 1010.77 1011.08 1011.38 1011.65 1011.90 1012.13 1012.36 1012.61 1012.88 1013.18 1013.50 1013.83 1014.15 1014.42 1014.63 1014.77 1014.85 1014.89 1014.90 1014.93 1015.00 1015.13 1015.33 1015.61 1015.94 1016.32 1016.72 1017.13 1017.52
1006.48 1006.87 1007.26 1007.65 1008.03 1008.39 1008.71 1008.98 1009.20 1009.38 1009.54 1009.71 1009.91 1010.14 1010.40 1010.70 1011.01 1011.32 1011.61 1011.90 1012.17 1012.44 1012.72 1013.03 1013.35 1013.70 1014.03 1014.34 1014.61 1014.81 1014.94 1015.00 1015.00 1014.98 1014.95 1014.95 1015.00 1015.13 1015.33 1015.62 1015.97 1016.36 1016.78
1006.23 1006.65 1007.06 1007.48 1007.90 1008.30 1008.66 1008.97 1009.20 1009.37 1009.50 1009.60 1009.73 1009.89 1010.10 1010.37 1010.67 1010.99 1011.33 1011.65 1011.96 1012.26 1012.55 1012.86 1013.19 1013.54 1013.90 1014.25 1014.57 1014.82 1015.00 1015.09 1015.09 1015.02 1014.91 1014.80 1014.72 1014.71 1014.78 1014.95 1015.22 1015.57 1015.98
1005.81 1006.25 1006.70 1007.17 1007.66 1008.14 1008.58 1008.94 1009.21 1009.40 1009.50 1009.57 1009.62 1009.72 1009.86 1010.08 1010.36 1010.68 1011.03 1011.38 1011.72 1012.05 1012.37 1012.69 1013.02 1013.38 1013.75 1014.13 1014.48 1014.78 1015.00 1015.12 1015.13 1015.05 1014.89 1014.70 1014.51 1014.37 1014.32 1014.38 1014.55 1014.84 1015.21
1005.22 1005.69 1006.18 1006.72 1007.30 1007.87 1008.40 1008.86 1009.20 1009.41 1009.52 1009.56 1009.56 1009.59 1009.67 1009.82 1010.06 1010.37 1010.72 1011.09 1011.46 1011.82 1012.16 1012.50 1012.84 1013.20 1013.57 1013.96 1014.33 1014.66 1014.91 1015.06 1015.10 1015.02 1014.85 1014.61 1014.36 1014.14 1013.99 1013.95 1014.04 1014.24 1014.55
1004.53 1005.01 1005.54 1006.15 1006.80 1007.48 1008.11 1008.66 1009.09 1009.36 1009.50 1009.53 1009.50 1009.47 1009.48 1009.58 1009.78 1010.06 1010.40 1010.79 1011.18 1011.57 1011.93 1012.28 1012.63 1012.98 1013.35 1013.73 1014.10 1014.44 1014.72 1014.90 1014.97 1014.91 1014.76 1014.52 1014.26 1014.00 1013.80 1013.69 1013.70 1013.82 1014.06
1003.85 1004.31 1004.85 1005.49 1006.20 1006.95 1007.68 1008.32 1008.83 1009.18 1009.36 1009.41 1009.37 1009.31 1009.28 1009.34 1009.49 1009.74 1010.08 1010.47 1010.88 1011.29 1011.67 1012.03 1012.39 1012.73 1013.08 1013.44 1013.80 1014.13 1014.41 1014.61 1014.71 1014.71 1014.60 1014.41 1014.17 1013.93 1013.72 1013.58 1013.54 1013.60 1013.77
1003.26 1003.66 1004.16 1004.78 1005.51 1006.30 1007.08 1007.79 1008.38 1008.80 1009.04 1009.13 1009.12 1009.06 1009.03 1009.05 1009.18 1009.42 1009.74 1010.13 1010.55 1010.97 1011.37 1011.74 1012.09 1012.42 1012.74 1013.07 1013.40 1013.71 1013.99 1014.21 1014.35 1014.39 1014.35 1014.24 1014.07 1013.89 1013.72 1013.59 1013.53 1013.56 1013.67
Thickness
5787 5789 5787 5786 5785 5785 5784 5784 5784 5783 5783 5782 5782 5781 5780 5780 5780 5779 5778 5777 5775 5774 5772 5771 5770 5769 5769 5768 5767 5766 5765 5764 5764 5763 5763 5761 5760 5759 5758 5758 5758 5756 5755
5790 5789 5786 5784 5784 5783 5783 5782 5782 5782 5782 5781 5780 5779 5779 5779 5778 5777 5775 5774 5773 5772 5770 5769 5769 5768 5767 5766 5765 5764 5763 5762 5762 5761 5761 5760 5758 5757 5757 5756 5756 5754 5753
5791 5788 5785 5783 5782 5781 5780 5780 5780 5781 5780 5780 5778 5778 5777 5777 5775 5774 5773 5772 5771 5770 5769 5768 5767 5766 5766 5765 5764 5763 5762 5761 5761 5760 5759 5759 5757 5756 5756 5755 5754 5752 5751
5793 5788 5784 5782 5781 5780 5779 5779 5779 5780 5779 5778 5777 5777 5776 5775 5774 5772 5771 5770 5769 5768 5767 5766 5766 5765 5764 5764 5763 5763 5762 5761 5760 5760 5759 5759 5757 5755 5754 5753 5752 5751 5750
5792 5787 5782 5781 5780 5779 5778 5777 5778 5778 5778 5777 5776 5776 5774 5773 5772 5770 5769 5768 5768 5767 5766 5765 5764 5764 5763 5762 5762 5762 5761 5761 5760 5760 5760 5758 5756 5754 5753 5752 5751 5750 5749
5792 5787 5782 5780 5779 5777 5777 5776 5777 5777 5777 5776 5775 5774 5773 5772 5771 5769 5768 5768 5767 5766 5765 5764 5763 5763 5762 5762 5761 5761 5761 5761 5760 5760 5760 5758 5756 5754 5753 5752 5750 5749 5748
5794 5789 5783 5780 5778 5777 5776 5775 5776 5777 5776 5775 5774 5773 5772 5771 5769 5768 5767 5767 5766 5765 5764 5763 5762 5762 5761 5761 5761 5761 5761 5760 5761 5762 5760 5758 5756 5754 5752 5751 5750 5749 5748
5796 5790 5784 5781 5779 5777 5775 5775 5776 5775 5775 5774 5773 5772 5771 5770 5769 5768 5767 5766 5765 5764 5763 5762 5762 5761 5761 5760 5760 5760 5761 5761 5763 5763 5761 5758 5755 5754 5752 5751 5750 5749 5748
5799 5793 5787 5783 5780 5777 5776 5775 5775 5774 5774 5773 5772 5771 5770 5769 5768 5767 5766 5765 5765 5763 5762 5762 5761 5761 5760 5760 5760 5760 5761 5762 5762 5763 5762 5758 5755 5754 5752 5751 5750 5749 5748
5799 5795 5791 5788 5783 5779 5777 5775 5774 5774 5773 5772 5771 5770 5769 5768 5767 5766 5765 5765 5764 5763 5763 5762 5761 5761 5760 5760 5761 5761 5761 5762 5763 5764 5761 5758 5756 5754 5753 5752 5750 5749 5748
5797 5796 5794 5791 5787 5785 5781 5777 5775 5774 5773 5772 5771 5770 5769 5768 5767 5766 5766 5765 5764 5763 5762 5762 5761 5761 5760 5761 5761 5761 5761 5763 5764 5764 5762 5759 5757 5755 5754 5752 5750 5749 5748
5793 5795 5796 5794 5791 5789 5786 5780 5778 5777 5774 5773 5772 5771 5770 5770 5768 5767 5765 5764 5764 5763 5762 5762 5761 5761 5761 5761 5762 5761 5762 5764 5765 5765 5761 5759 5757 5756 5754 5753 5751 5750 5748
5798 5796 5797 5796 5794 5791 5788 5784 5781 5780 5777 5775 5774 5773 5772 5771 5770 5768 5765 5764 5763 5762 5762 5762 5762 5762 5763 5764 5764 5763 5764 5766 5766 5766 5762 5760 5758 5756 5755 5753 5752 5750 5749
5801 5799 5799 5798 5794 5792 5790 5788 5785 5782 5779 5778 5776 5775 5773 5772 5771 5769 5767 5766 5765 5765 5764 5764 5764 5765 5765 5765 5765 5765 5766 5767 5767 5766 5762 5761 5759 5758 5756 5754 5752 5751 5750
5803 5801 5799 5798 5794 5792 5790 5789 5788 5785 5783 5780 5778 5776 5775 5774 5772 5770 5768 5767 5767 5767 5766 5765 5765 5765 5765 5765 5766 5767 5767 5767 5768 5766 5763 5761 5760 5758 5757 5755 5753 5752 5751
5806 5803 5801 5798 5795 5792 5790 5788 5789 5788 5785 5784 5781 5779 5777 5776 5774 5772 5770 5769 5768 5768 5768 5767 5767 5766 5766 5766 5766 5768 5768 5768 5768 5766 5764 5762 5761 5759 5758 5756 5755 5754 5752
5809 5806 5803 5800 5797 5794 5792 5791 5790 5790 5788 5786 5783 5780 5778 5777 5775 5773 5772 5770 5770 5769 5769 5768 5768 5767 5766 5767 5766 5768 5768 5769 5768 5767 5766 5764 5762 5760 5758 5757 5756 5755 5753
5814 5809 5806 5805 5800 5796 5794 5792 5792 5792 5790 5787 5784 5781 5779 5778 5776 5775 5773 5771 5771 5770 5769 5768 5767 5766 5765 5765 5766 5767 5769 5769 5768 5768 5767 5766 5764 5763 5760 5758 5757 5756 5755
5818 5812 5808 5806 5802 5798 5796 5795 5794 5792 5790 5789 5787 5784 5781 5779 5778 5776 5774 5772 5771 5770 5770 5770 5768 5766 5764 5764 5765 5766 5768 5768 5769 5769 5768 5768 5766 5765 5763 5760 5759 5757 5756
5823 5817 5811 5808 5804 5801 5798 5795 5794 5792 5791 5790 5788 5786 5783 5781 5780 5778 5775 5774 5773 5771 5770 5769 5767 5766 5765 5764 5765 5766 5767 5769 5769 5769 5769 5769 5768 5767 5765 5763 5760 5758 5757
5825 5819 5814 5810 5806 5802 5798 5794 5790 5789 5789 5790 5790 5788 5786 5783 5782 5779 5777 5775 5773 5771 5770 5769 5767 5765 5764 5765 5761 5760 5764 5769 5769 5769 5769 5769 5769 5768 5767 5765 5763 5760 5758
5827 5821 5817 5813 5809 5805 5802 5799 5796 5794 5792 5791 5791 5790 5787 5785 5783 5782 5778 5776 5775 5773 5771 5770 5767 5764 5764 5766 5760 5754 5751 5755 5763 5769 5768 5768 5769 5768 5767 5766 5764 5762 5761
5830 5825 5822 5817 5813 5809 5806 5802 5799 5795 5792 5790 5789 5788 5788 5786 5785 5782 5780 5779 5777 5775 5772 5770 5769 5765 5761 5764 5764 5756 5748 5745 5753 5762 5766 5767 5767 5766 5766 5767 5766 5764 5762
5836 5832 5827 5820 5815 5811 5809 5803 5798 5792 5789 5789 5789 5789 5789 5788 5786 5784 5782 5780 5778 5777 5775 5773 5772 5768 5764 5760 5762 5762 5759 5757 5749 5748 5757 5763 5765 5764 5764 5766 5765 5764 5762
5841 5836 5830 5823 5817 5813 5809 5805 5800 5796 5794 5794 5792 5789 5788 5788 5787 5786 5784 5781 5779 5778 5776 5774 5772 5770 5767 5763 5761 5760 5759 5758 5757 5749 5746 5753 5758 5762 5763 5764 5764 5763 5762
5844 5839 5832 5824 5818 5814 5810 5807 5802 5798 5796 5793 5790 5787 5786 5786 5786 5786 5784 5782 5780 5778 5775 5774 5772 5770 5768 5766 5764 5762 5759 5756 5754 5752 5747 5748 5750 5756 5761 5762 5761 5761 5760